Guymon, OK

9:44 AM CDT on October 23, 2017 (GMT -0500)
Guymon Municipal

Weather History for KGUY - October, 2013

Change the Weather History Date:

Monday, October 7, 2013

  Actual Average Record
Temperature  
Mean Temperature 62 °F 61 °F  
Max Temperature 83 °F 75 °F 92 °F (2014)
Min Temperature 41 °F 46 °F 32 °F (2000)
Degree Days  
Heating Degree Days 3 6  
Month to date heating degree days 26 35  
Since 1 July heating degree days 34 78  
Cooling Degree Days 0 2  
Month to date cooling degree days 13 15  
Year to date cooling degree days 1834 1469  
Growing Degree Days 12 (Base 50)    
Moisture  
Dew Point 33 °F    
Average Humidity 41    
Maximum Humidity 70    
Minimum Humidity 12    
Precipitation  
Precipitation 0.00 in 0.04 in 0.22 in (1999)
Month to date precipitation 0.00 0.45  
Year to date precipitation 13.32 17.01  
Snow  
Snow 0.00 in - - ()
Month to date snowfall 0.0  
Since 1 July snowfall 0.0  
Since 1 September snowfall 0.0  
Snow Depth 0.00 in    
Sea Level Pressure  
Sea Level Pressure 30.06 in    
Wind  
Wind Speed 8 mph (SSW)    
Max Wind Speed 20 mph    
Max Gust Speed 26 mph    
Visibility 10 miles    
Events      
T = Trace of Precipitation, MM = Missing Value Source: NWS Daily Summary

Daily Weather History Graph

Daily Weather History Graph

Search for Another Location

Airport or City:

Trip Planner

Search our weather history database for the weather conditions in past years. The results will help you decide how hot, cold, wet, or windy it might be!

Date:

Astronomy

Oct. 07, 2013 Rise Set
Actual Time 7:46 AM CDT 7:20 PM CDT
Civil Twilight 7:20 AM CDT 7:46 PM CDT
Nautical Twilight 6:50 AM CDT 8:16 PM CDT
Astronomical Twilight 6:20 AM CDT 8:46 PM CDT
Moon 10:33 AM CDT (10/7) 9:12 PM CDT (10/7)
Length of Visible Light 12h 25m
Length of Day
11h 33m
Waxing Crescent, 9% of the Moon is Illuminated
Oct 7
Waxing Crescent
Oct 11
First Quarter
Oct 18
Full
Oct 26
Last Quarter
Nov 3
New

Hourly Weather History & Observations

Time (CDT) Temp. Windchill Dew Point Humidity Pressure Visibility Wind Dir Wind Speed Gust Speed Precip Events Conditions
12:53 AM 53.1 °F - 36.0 °F 52% 30.13 in 10.0 mi WNW 9.2 mph - N/A   Clear
1:53 AM 48.9 °F - 36.0 °F 61% 30.14 in 10.0 mi West 4.6 mph - N/A   Clear
2:53 AM 50.0 °F - 35.1 °F 57% 30.13 in 10.0 mi WNW 9.2 mph - N/A   Clear
3:53 AM 46.9 °F - 35.1 °F 63% 30.13 in 10.0 mi Calm Calm - N/A   Clear
4:53 AM 46.9 °F - 34.0 °F 61% 30.12 in 10.0 mi West 3.5 mph - N/A   Clear
5:53 AM 45.0 °F 43.5 °F 34.0 °F 65% 30.12 in 10.0 mi North 3.5 mph - N/A   Clear
6:53 AM 42.1 °F 38.4 °F 34.0 °F 73% 30.15 in 10.0 mi WSW 5.8 mph - N/A   Clear
7:53 AM 42.1 °F - 34.0 °F 73% 30.16 in 10.0 mi Calm Calm - N/A   Clear
8:53 AM 50.0 °F - 36.0 °F 59% 30.17 in 10.0 mi Calm Calm - N/A   Clear
9:53 AM 59.0 °F - 37.9 °F 46% 30.15 in 10.0 mi Calm Calm - N/A   Clear
10:53 AM 66.0 °F - 37.9 °F 36% 30.13 in 10.0 mi South 6.9 mph - N/A   Clear
11:53 AM 71.1 °F - 37.0 °F 29% 30.11 in 10.0 mi South 9.2 mph - N/A   Clear
12:53 PM 75.0 °F - 35.1 °F 23% 30.07 in 10.0 mi South 8.1 mph 20.7 mph N/A   Clear
1:53 PM 79.0 °F - 32.0 °F 18% 30.04 in 10.0 mi South 12.7 mph 21.9 mph N/A   Clear
2:53 PM 81.0 °F - 30.0 °F 16% 29.99 in 10.0 mi South 11.5 mph 20.7 mph N/A   Clear
3:53 PM 82.0 °F - 25.0 °F 12% 29.97 in 10.0 mi South 11.5 mph - N/A   Clear
4:53 PM 82.0 °F - 25.0 °F 12% 29.94 in 10.0 mi South 12.7 mph 24.2 mph N/A   Clear
5:53 PM 81.0 °F - 25.0 °F 13% 29.94 in 10.0 mi South 16.1 mph 24.2 mph N/A   Clear
6:53 PM 75.9 °F - 30.0 °F 19% 29.94 in 10.0 mi SSE 12.7 mph - N/A   Clear
7:53 PM 69.1 °F - 30.9 °F 24% 29.96 in 10.0 mi SSE 9.2 mph - N/A   Clear
8:53 PM 64.9 °F - 36.0 °F 34% 29.96 in 10.0 mi SSE 10.4 mph - N/A   Clear
9:53 PM 64.0 °F - 36.0 °F 35% 29.96 in 10.0 mi South 11.5 mph - N/A   Clear
10:53 PM 62.1 °F - 36.0 °F 38% 29.96 in 10.0 mi South 11.5 mph - N/A   Clear
11:53 PM 60.1 °F - 36.0 °F 41% 29.95 in 10.0 mi South 11.5 mph - N/A   Clear